Temperature
8 8 8 8 8 8 8 8 8 8 8 9 10 10 10 11 11 10 11 11 11 11 10 10 10 10 10 10 10 10 10 9 9 9 9 9 9 8
7 7 7 7 8 8 8 8 8 8 8 8 9 10 10 10 10 10 10 10 10 10 10 10 10 10 10 10 9 9 9 9 9 9 9 9 8 8
6 6 6 6 7 7 7 7 7 7 7 8 8 8 9 9 9 9 9 9 9 9 9 9 9 9 9 9 9 9 9 9 8 8 8 8 8 8
5 5 5 5 5 6 6 6 6 6 6 6 7 7 8 8 8 8 8 9 9 9 9 9 9 9 8 9 8 8 8 8 8 8 8 8 8 7
4 4 4 4 4 5 5 5 5 5 6 5 6 6 7 7 7 7 8 8 8 8 8 8 8 8 8 8 8 8 8 8 8 8 8 7 7 7
3 3 3 3 3 4 4 4 4 4 5 5 5 5 6 6 6 6 7 7 7 7 7 7 7 7 7 7 7 7 7 7 7 7 7 7 7 7
2 2 2 2 2 3 3 3 3 3 3 4 4 4 5 5 5 5 5 6 6 6 6 6 7 7 7 7 7 7 7 7 7 7 7 6 6 6
1 1 1 2 2 2 2 2 2 2 2 2 3 3 3 4 4 4 4 4 4 5 5 6 6 6 6 6 7 6 6 6 6 6 6 6 6 5
-0 0 0 1 0 1 1 1 1 1 1 2 2 2 2 3 3 3 4 4 4 5 5 5 5 5 6 6 6 6 6 6 6 6 6 5 5 5
-1 -1 -1 -0 -0 -0 -0 0 1 1 1 1 1 2 2 2 2 3 3 3 4 4 4 4 4 4 5 5 5 5 5 5 5 5 5 5 4 4
-2 -2 -2 -2 -1 -1 -1 -1 -0 0 0 0 1 1 1 2 2 2 2 2 2 3 3 3 4 4 4 4 4 4 4 4 4 4 4 4 4 4
-3 -2 -2 -2 -2 -2 -2 -2 -1 -1 -1 -0 0 0 1 1 1 1 1 1 2 2 3 3 3 3 3 3 3 3 3 3 3 3 3 3 3 3
-4 -3 -3 -3 -3 -3 -3 -3 -2 -2 -2 -1 -1 -0 0 0 1 1 1 1 1 2 2 2 2 3 2 2 2 2 2 2 2 2 2 2 2 3
-5 -4 -4 -4 -4 -3 -3 -3 -3 -3 -2 -2 -2 -1 -1 -0 -0 0 0 0 1 1 2 2 2 2 2 2 2 2 2 2 2 2 2 1 2 2
-5 -5 -5 -5 -4 -4 -4 -4 -4 -3 -3 -3 -3 -2 -2 -1 -1 -0 -0 0 0 0 1 1 2 2 2 2 2 2 1 1 1 1 1 1 1 1
-5 -5 -5 -5 -5 -5 -5 -5 -4 -4 -4 -4 -4 -3 -3 -2 -2 -1 -1 -1 -1 -0 0 0 1 1 1 1 1 1 1 1 1 1 1 0 0 1
-6 -6 -6 -5 -5 -5 -5 -5 -5 -5 -5 -4 -4 -4 -3 -3 -3 -2 -2 -2 -1 -1 -1 -1 -0 -0 0 0 0 0 0 0 1 0 0 -0 -0 0
-6 -6 -7 -7 -7 -7 -6 -6 -6 -6 -5 -5 -5 -4 -4 -4 -4 -3 -3 -2 -2 -2 -1 -1 -1 -1 -1 -1 -1 -0 -0 -0 -0 -0 -0 -0 -1 -0
-7 -7 -8 -8 -8 -7 -7 -7 -7 -6 -6 -6 -5 -5 -5 -5 -4 -4 -3 -3 -3 -2 -2 -2 -2 -2 -2 -2 -2 -1 -1 -1 -1 -1 -1 -1 -1 -0
-8 -8 -8 -8 -8 -8 -8 -8 -7 -7 -7 -7 -6 -6 -6 -6 -5 -5 -4 -4 -3 -3 -3 -3 -2 -2 -2 -2 -2 -2 -2 -1 -1 -1 -2 -2 -1 -1
-8 -8 -8 -8 -8 -8 -8 -8 -8 -8 -7 -7 -7 -6 -6 -6 -6 -5 -5 -4 -4 -4 -4 -3 -3 -3 -2 -2 -2 -3 -3 -2 -2 -2 -2 -2 -2 -2
-9 -9 -8 -8 -8 -8 -8 -8 -8 -8 -8 -7 -7 -7 -7 -6 -6 -6 -5 -5 -5 -4 -4 -4 -4 -3 -3 -3 -3 -3 -3 -3 -3 -3 -3 -2 -2 -2
-9 -9 -8 -8 -8 -8 -8 -8 -8 -8 -8 -7 -7 -7 -7 -7 -6 -6 -6 -5 -5 -5 -5 -5 -4 -4 -4 -3 -3 -4 -4 -4 -4 -4 -4 -3 -3 -2
Wind_Speed
5 5 5 5 5 6 6 6 7 8 9 7 5 6 7 8 11 14 15 20 22 22 22 20 18 18 17 16 16 15 14 12 12 11 10 9 8 7
4 5 5 4 5 5 5 6 7 8 9 6 6 5 6 6 10 11 14 18 21 22 21 20 19 19 18 17 16 16 14 13 13 12 11 10 9 8
5 5 6 5 5 4 5 5 6 6 10 7 5 4 6 7 6 9 11 12 15 20 20 20 20 20 19 19 18 17 16 15 15 13 12 11 10 10
6 6 6 6 6 5 5 6 7 7 8 9 5 4 6 8 8 8 8 10 11 17 20 20 20 20 20 20 20 19 18 17 16 14 13 12 11 11
6 7 7 6 6 6 6 6 6 7 6 7 7 4 4 5 7 7 7 7 8 13 18 20 20 20 21 21 21 20 19 18 17 16 14 12 11 11
7 7 6 6 7 7 6 7 7 8 7 7 6 5 4 5 6 6 6 6 7 7 12 15 18 20 20 21 21 21 20 20 18 17 15 14 12 11
8 7 7 8 9 8 8 7 7 7 8 8 8 6 5 4 6 5 7 6 6 6 7 9 10 11 14 19 20 21 21 21 20 18 17 15 13 12
9 8 8 8 10 12 12 12 10 10 9 9 9 9 8 6 6 6 6 5 6 6 7 8 8 10 10 13 18 21 21 21 20 19 18 16 14 13
8 9 9 9 11 8 11 13 12 14 13 11 11 10 10 8 8 8 8 7 8 6 7 8 7 10 9 13 19 21 21 21 21 20 18 17 15 13
8 8 9 9 10 11 9 9 9 10 11 10 10 11 10 9 10 11 10 8 5 5 7 7 6 6 6 9 18 21 21 21 21 20 19 17 15 13
8 8 9 9 15 17 11 10 11 10 12 14 15 14 15 15 12 8 7 7 7 5 5 5 4 3 3 5 12 19 20 20 20 20 19 17 16 14
8 8 12 14 17 18 12 11 12 11 10 11 12 12 11 11 13 10 9 8 6 5 6 6 4 3 3 2 5 10 13 17 19 20 19 18 17 11
9 8 9 18 20 20 17 11 14 14 10 9 9 8 8 7 8 8 8 8 8 6 6 6 4 4 4 3 3 5 7 7 10 13 17 19 18 13
9 9 10 19 20 20 16 15 18 15 7 7 7 7 7 7 6 7 8 8 8 8 9 9 5 7 6 4 4 4 5 6 7 7 8 15 15 15
10 16 18 20 18 14 15 18 14 8 7 7 7 7 6 6 5 5 5 4 3 4 7 7 7 7 6 5 5 6 5 5 7 7 8 7 7 8
11 14 18 17 14 14 13 10 7 7 7 7 7 6 5 4 5 4 4 3 3 2 2 4 6 7 6 5 6 7 7 7 8 8 7 5 6 7
12 8 7 7 7 7 7 7 6 7 7 6 6 6 6 5 5 4 4 4 4 4 2 2 3 4 3 4 6 7 7 6 8 8 7 6 5 6
13 8 8 8 8 8 9 8 7 7 7 7 6 6 6 6 5 4 4 4 4 4 4 4 5 4 3 2 1 7 7 6 7 8 7 6 6 5
9 7 8 8 9 9 8 8 8 7 7 7 6 6 5 5 5 5 4 4 4 4 4 5 6 6 6 5 1 2 6 7 8 7 6 5 6 6
7 8 8 8 8 8 8 8 8 8 7 7 7 6 5 5 5 5 4 4 3 3 4 5 6 6 6 5 4 2 6 8 8 8 6 4 4 6
9 8 8 8 8 8 8 8 8 8 8 8 7 6 5 5 5 5 4 5 4 3 5 5 4 6 5 5 5 4 3 5 7 6 7 6 5 5
9 9 9 9 9 8 8 8 8 8 8 7 6 5 5 4 5 5 4 4 3 3 3 3 5 5 3 5 7 7 6 6 8 10 8 5 6 7
9 9 9 9 8 8 8 9 9 8 7 7 6 5 4 5 4 4 4 3 3 3 4 4 4 3 4 6 7 7 9 9 6 6 4 6 7 8
Wind_Direction
266 263 262 254 245 239 236 229 232 244 242 229 224 222 218 216 216 215 214 213 212 215 220 220 214 208 207 211 216 216 213 213 215 212 212 218 230 245
275 273 269 267 261 252 249 246 239 241 249 231 231 231 220 223 219 217 221 217 214 215 217 215 209 205 206 209 211 208 205 205 208 211 215 220 229 241
291 282 275 275 271 268 262 254 251 249 256 256 236 233 223 225 222 220 223 219 218 216 215 212 208 206 206 206 206 205 203 204 206 210 215 220 227 237
302 295 288 286 275 270 266 261 256 251 255 263 257 241 237 226 221 221 223 220 218 217 213 212 210 208 208 206 205 204 203 202 203 207 212 217 225 234
312 302 294 289 284 280 275 270 270 268 258 263 263 252 251 229 225 228 224 223 220 217 213 213 212 211 210 208 206 204 202 201 201 204 208 213 222 231
314 305 300 295 286 285 281 273 276 274 266 262 265 262 253 237 222 225 232 225 222 215 219 217 215 212 211 210 208 204 202 201 201 203 205 209 214 222
319 317 309 304 301 296 286 279 277 275 274 266 263 262 255 237 230 228 235 232 230 216 217 215 211 211 210 212 209 205 203 201 201 203 204 207 209 214
321 320 317 312 309 305 301 294 284 274 272 269 262 256 252 249 240 236 233 235 240 209 211 222 209 214 210 207 208 205 203 202 201 202 202 203 205 210
324 322 319 320 320 311 303 299 291 285 278 272 268 261 254 245 239 236 235 237 242 214 209 226 213 219 211 210 206 204 204 203 201 201 200 199 200 203
317 316 315 316 319 319 312 305 293 288 283 275 267 265 260 249 235 236 237 244 260 221 201 223 211 219 209 203 203 203 204 202 200 198 196 194 194 195
314 315 316 314 316 319 314 305 300 296 295 289 283 279 277 270 258 247 235 236 254 235 204 204 200 204 202 204 200 199 202 200 197 195 193 191 190 189
314 313 315 316 315 316 311 301 296 295 297 296 289 282 271 263 258 238 230 234 247 240 200 187 182 168 192 207 192 191 196 199 197 194 191 189 185 179
313 312 311 314 313 312 309 298 294 297 292 288 284 279 271 257 247 240 232 229 232 245 198 182 186 180 180 178 188 190 186 185 189 191 191 189 186 179
308 305 305 309 311 310 308 303 303 302 290 286 284 279 271 261 254 248 245 241 236 233 206 189 191 188 183 180 187 181 183 179 175 174 179 186 187 186
307 308 310 311 312 309 306 309 310 301 294 289 285 282 275 266 263 259 261 251 248 232 204 202 191 186 186 186 172 172 173 181 175 171 173 176 176 176
311 309 312 313 312 312 312 313 310 300 298 288 288 288 287 277 267 258 259 248 244 252 199 190 184 177 183 172 170 175 173 175 175 170 164 167 169 173
316 311 310 312 313 313 312 310 313 313 307 299 297 298 294 287 283 270 253 239 233 214 193 148 122 119 131 161 173 175 170 167 169 163 160 166 172 175
321 315 315 315 315 316 315 314 312 311 307 302 298 297 297 294 289 281 259 242 230 209 189 171 149 129 95 37 94 170 169 163 160 161 158 163 173 174
322 315 314 314 315 314 312 311 309 308 307 303 296 293 292 292 289 280 266 250 230 205 188 179 175 174 180 186 181 162 165 159 158 161 163 156 167 171
319 315 313 312 311 310 309 307 305 306 304 302 297 291 285 286 285 280 268 249 226 204 191 188 193 189 189 174 157 150 156 158 161 161 150 119 112 137
317 314 311 309 308 307 305 303 301 300 299 298 293 290 286 282 280 277 268 245 226 208 200 200 191 151 118 115 120 123 119 131 145 151 146 139 138 151
313 311 310 308 307 305 303 302 301 299 298 294 290 286 283 280 277 274 265 248 226 210 193 164 147 146 147 154 145 138 130 117 109 114 116 134 159 174
314 312 309 307 305 304 303 301 299 299 298 296 292 286 280 280 278 271 259 241 211 188 165 156 154 146 141 143 139 137 136 135 128 116 87 90 112 121
Height
1449 1450 1450 1451 1452 1453 1454 1455 1456 1454 1453 1454 1456 1458 1460 1462 1463 1465 1467 1469 1471 1473 1475 1477 1478 1480 1482 1483 1485 1486 1487 1488 1488 1489 1489 1490 1490 1490
1443 1443 1444 1444 1445 1445 1446 1447 1447 1447 1445 1446 1448 1450 1452 1453 1455 1457 1458 1460 1462 1464 1466 1468 1470 1472 1474 1476 1478 1479 1480 1481 1482 1483 1484 1484 1485 1485
1438 1438 1438 1438 1437 1438 1438 1439 1440 1440 1438 1437 1440 1442 1443 1444 1446 1447 1449 1451 1452 1455 1457 1459 1461 1464 1466 1468 1470 1472 1473 1474 1475 1476 1478 1479 1479 1480
1432 1432 1431 1431 1431 1431 1431 1431 1432 1432 1432 1430 1431 1432 1434 1435 1437 1438 1440 1441 1443 1445 1448 1450 1452 1455 1457 1460 1462 1464 1465 1467 1468 1470 1471 1472 1473 1474
1426 1426 1425 1425 1424 1424 1424 1424 1424 1424 1424 1423 1422 1424 1425 1427 1428 1429 1430 1432 1434 1436 1438 1440 1443 1445 1448 1451 1453 1456 1457 1459 1461 1462 1464 1466 1467 1468
1422 1421 1419 1419 1418 1418 1417 1417 1417 1417 1416 1415 1415 1415 1416 1417 1419 1419 1420 1422 1424 1427 1429 1431 1433 1436 1439 1442 1444 1447 1449 1451 1453 1455 1457 1459 1460 1461
1416 1415 1414 1413 1412 1412 1411 1410 1410 1409 1409 1408 1407 1407 1407 1408 1409 1411 1412 1413 1414 1417 1419 1421 1423 1425 1428 1431 1434 1437 1440 1442 1445 1447 1449 1452 1453 1455
1411 1409 1408 1407 1406 1405 1405 1404 1403 1403 1401 1401 1399 1399 1398 1400 1401 1402 1404 1405 1405 1408 1410 1411 1414 1415 1418 1421 1424 1427 1431 1433 1436 1439 1442 1444 1446 1448
1407 1405 1403 1402 1400 1398 1397 1396 1395 1395 1395 1394 1392 1390 1391 1392 1393 1394 1395 1395 1395 1398 1401 1401 1404 1405 1408 1412 1415 1418 1421 1424 1428 1431 1434 1437 1439 1442
1403 1401 1399 1396 1395 1393 1391 1389 1388 1387 1386 1386 1385 1384 1384 1384 1385 1385 1386 1387 1387 1389 1392 1392 1394 1396 1399 1402 1406 1409 1412 1416 1419 1422 1426 1429 1432 1435
1399 1397 1394 1392 1390 1388 1386 1383 1380 1379 1378 1377 1376 1376 1376 1376 1377 1377 1377 1378 1377 1379 1382 1384 1385 1388 1390 1392 1396 1400 1404 1407 1411 1414 1418 1422 1425 1428
1394 1392 1389 1387 1385 1383 1380 1377 1373 1371 1370 1368 1367 1367 1367 1367 1367 1368 1368 1369 1369 1370 1372 1376 1377 1380 1382 1384 1388 1391 1395 1399 1403 1407 1411 1414 1418 1422
1390 1386 1384 1381 1379 1376 1374 1371 1367 1365 1363 1361 1359 1358 1358 1358 1358 1358 1359 1360 1360 1361 1364 1367 1368 1371 1374 1376 1380 1384 1388 1391 1396 1400 1404 1408 1411 1415
1385 1382 1379 1376 1373 1370 1367 1363 1361 1359 1356 1354 1352 1350 1350 1349 1349 1350 1350 1351 1352 1352 1355 1357 1359 1362 1365 1368 1371 1376 1380 1384 1389 1392 1397 1401 1405 1409
1381 1377 1374 1370 1366 1363 1360 1357 1354 1352 1349 1347 1345 1343 1342 1342 1341 1342 1342 1342 1343 1344 1345 1347 1350 1353 1357 1359 1362 1367 1372 1376 1381 1386 1390 1394 1399 1403
1375 1371 1368 1364 1361 1358 1354 1351 1348 1346 1344 1341 1339 1337 1336 1335 1334 1334 1334 1334 1335 1336 1338 1340 1343 1346 1349 1352 1356 1359 1364 1368 1373 1379 1384 1389 1393 1397
1371 1366 1362 1359 1355 1352 1349 1346 1343 1341 1338 1336 1334 1332 1330 1329 1329 1329 1328 1328 1329 1330 1332 1334 1337 1340 1344 1347 1350 1353 1358 1362 1367 1372 1377 1382 1387 1392
1367 1362 1358 1355 1351 1348 1345 1342 1339 1336 1334 1332 1330 1328 1326 1325 1324 1323 1323 1323 1324 1325 1326 1329 1331 1335 1339 1342 1346 1348 1352 1357 1362 1367 1372 1376 1381 1387
1363 1359 1355 1352 1348 1345 1341 1338 1335 1332 1330 1328 1326 1324 1322 1321 1320 1319 1319 1319 1319 1320 1322 1324 1326 1330 1332 1336 1340 1344 1348 1352 1357 1362 1367 1372 1376 1382
1359 1356 1352 1348 1345 1341 1338 1335 1332 1329 1326 1323 1321 1320 1318 1317 1316 1315 1315 1315 1316 1317 1318 1320 1322 1325 1328 1331 1335 1339 1344 1348 1353 1357 1362 1368 1373 1379
1356 1352 1348 1345 1341 1338 1334 1331 1328 1325 1322 1320 1317 1315 1314 1313 1312 1312 1312 1312 1313 1313 1314 1316 1319 1323 1326 1329 1332 1335 1340 1345 1350 1354 1359 1364 1369 1374
1352 1348 1344 1341 1337 1334 1330 1327 1324 1321 1318 1316 1313 1312 1310 1310 1309 1309 1309 1309 1310 1310 1312 1314 1316 1319 1322 1325 1328 1332 1337 1342 1347 1352 1358 1362 1365 1369
1349 1345 1341 1337 1333 1330 1326 1323 1320 1317 1314 1312 1310 1308 1307 1306 1306 1306 1306 1306 1307 1308 1309 1311 1314 1317 1320 1323 1326 1330 1335 1339 1344 1349 1355 1359 1364 1368